Simultaneous Nadir Overpasses (SNOs) Predictions

Prediction of SNOs between METOP-B and TERRA Satellite Orbit:

Table of predicted SNOs for the next 14.0 days since TLE Epoch: 12/14/2019
Index Date (METOP-B) Time (METOP-B) Lat,Lon (METOP-B) SZA (METOP-B ) Date (TERRA) Time (TERRA) Lat,Lon (TERRA) SZA (TERRA ) Distance(km) Time Diff (sec)
1 12/16/2019 09:26:15 -81.28, -95.02 72.74 12/16/2019 09:27:20 -81.27, -95.11 72.73 1.82 65
2 12/16/2019 10:16:55 81.29, 72.76 107.32 12/16/2019 10:16:46 81.28, 72.69 107.30 1.31 9
3 12/19/2019 05:00:39 -81.28, -28.53 72.67 12/19/2019 05:01:36 -81.28, -28.54 72.65 0.16 57
4 12/19/2019 05:51:19 81.29, 139.22 107.38 12/19/2019 05:51:02 81.29, 139.24 107.38 0.42 17
5 12/22/2019 00:35:02 -81.28, 37.93 72.67 12/22/2019 00:35:52 -81.28, 37.85 72.66 1.52 50
6 12/22/2019 01:25:42 81.29,-154.34 107.38 12/22/2019 01:25:18 81.28,-154.39 107.36 0.94 24
7 12/24/2019 20:09:26 -81.28, 104.38 72.73 12/24/2019 20:10:09 -81.28, 104.42 72.70 0.77 43
8 12/24/2019 21:00:06 81.29, -87.92 107.32 12/24/2019 20:59:35 81.29, -87.84 107.31 1.46 31
9 12/27/2019 15:43:50 -81.28, 170.81 72.85 12/27/2019 15:44:27 -81.28, 170.81 72.84 0.03 37




NCC Satellite Simultaneous Nadir Overpasses (SNOs) Prediction Service
